Skip Page Navigation
NASA JPL Caltech
NASA Logo - Jet Propulsion Laboratory + View the NASA Portal
+ Center for Near-Earth Object Studies
JPL Home Earth Solar System Stars & Galaxies Technology
JPL Solar System Dynamics
BODIES ORBITS EPHEMERIDES TOOLS PHYSICAL DATA DISCOVERY FAQ SITE MAP
JPL Small-Body Database Browser
Search: [ help ]  
17619 (1995 VT)
Classification: Main-belt Asteroid          SPK-ID: 2017619
Ephemeris | Orbit Diagram | Orbital Elements | Mission Design | Physical Parameters | Discovery Circumstances | Close-Approach Data ]

[ show orbit diagram ]
Orbital Elements at Epoch 2459200.5 (2020-Dec-17.0) TDB
Reference: JPL 35 (heliocentric ecliptic J2000)
 Element Value Uncertainty (1-sigma)   Units 
e .03529991163933752 1.8459e-08  
a 3.062844198371169 1.6644e-08 au
q 2.954726068803609 5.7298e-08 au
i 8.760458040826 3.45e-07 deg
node 231.1982882758159 2.9672e-06 deg
peri 294.1715906570178 2.0876e-05 deg
M 140.9206501202771 2.328e-05 deg
tp 2458434.095718045109
(2018-Nov-11.59571805)
0.00012412 TDB
period 1957.878715917594
5.36
1.5959e-05
4.369e-08
d
yr
n .1838724723207789 1.4988e-09 deg/d
Q 3.170962327938728 1.7232e-08 au
  Orbit Determination Parameters
   # obs. used (total)      2174  
   data-arc span      14017 days (38.38 yr)  
   first obs. used      1982-07-11  
   last obs. used      2020-11-25  
   planetary ephem.      DE441  
   SB-pert. ephem.      SB441-N16  
   condition code      0  
   norm. resid. RMS      .44324  
   source      ORB  
   producer      Otto Matic  
   solution date      2021-Apr-13 02:08:20  

Additional Information
 Earth MOID = 1.97136 au 
 Jupiter MOID = 1.84816 au 
 T_jup = 3.214 
[ show covariance matrix ]

Ephemeris | Orbit Diagram | Orbital Elements | Mission Design | Physical Parameters | Discovery Circumstances | Close-Approach Data ]

Physical Parameter Table
Parameter Symbol Value Units Sigma Reference Notes
absolute magnitude H 12.48   n/a E2021B10  
diameter diameter 11.107 km 0.181 urn:nasa:pds:neowise_diameters_albedos::2.0[mainbelt] (http://adsabs.harvard.edu/abs/2011ApJ...741...68M)  
rotation period rot_per 3.475 h n/a LCDB (Rev. 2020-October); Warner et al., 2009 Result based on less than full coverage, so that the period may be wrong by 30 percent or so.
Published Reference List:
[Waszczak, A.; Chang, C.-K.; Ofeck, E.O.; Laher, F.; et al. (2015) Astron. J. 150, A75.]
geometric albedo albedo 0.249   0.023 urn:nasa:pds:neowise_diameters_albedos::2.0[mainbelt] (http://adsabs.harvard.edu/abs/2011ApJ...741...68M)  

17619 (1995 VT)          Discovered 1995-Nov-01 by Otomo, S. at Kiyosato
Reference: 20001013/Numbers.arcLast Updated: 2004-04-19

[ hide close-approach data ]
Close-Approach Data   ...sorted by Date/Time (TDB)
Date/Time (TDB) Time Uncertainty
(days_HH:MM)
Body Nominal Distance (au) Minimum Distance (au) Maximum Distance (au) V-relative (km/s) V-infinity (km/s) JD (TDB) Time Uncertainty (minutes) Semi-major axis (km) Semi-minor axis (km) range-LOV angle (deg) N-sigma BP Orbit Ref. Reference Modified
1904-May-24 08:14 00:03 Jupiter 1.86858672550414 1.86858654043566 1.86858691057347 3.39061337623327 3.254176926784 2416624.843048495 2.73588328179027 172.72145744059 6.76818771507571 -85.3824544060271 9742834.77525133 T 35 CATAB v2.0f-lin.ifort 2021-Apr-13 02:09:51 2021-Apr-13 02:09
1953-Feb-03 04:53 00:01 Jupiter 1.93746726942483 1.93746675001052 1.9374677888408 4.24856881293781 4.14439095279136 2434411.703160265 1.43379250911033 96.8966730112097 6.22259543103055 76.291642030928 12906557.5782475 T 35 CATAB v2.0f-lin.ifort 2021-Apr-13 02:09:51 2021-Apr-13 02:09
1962-Aug-26 06:22 00:01 Jupiter 1.94233656378068 1.94233630196863 1.94233682559327 2.87640771003418 2.72057947560697 2437902.765160233 1.36255878395411 69.0526170050165 4.18048463746147 -80.3810690337485 7560332.54194464 T 35 CATAB v2.0f-lin.ifort 2021-Apr-13 02:09:51 2021-Apr-13 02:09
2011-Jun-04 23:56 < 00:01 Jupiter 1.85446166457585 1.85446148056291 1.8544618485888 3.60505738179592 3.47605261815777 2455717.497365441 0.136074602307968 9.88900319037459 7.46819374983922 74.889738735582 9925820.67367939 T 35 CATAB v2.0f-lin.ifort 2021-Apr-13 02:09:51 2021-Apr-13 02:09
2060-Feb-09 01:09 00:01 Jupiter 1.97106204866377 1.97106174239996 1.97106235492824 4.32602003629558 4.2255166981787 2473498.547638968 1.04560618584211 63.6488229530791 5.59611610681313 77.8587428308088 14538684.2616528 T 35 CATAB v2.0f-lin.ifort 2021-Apr-13 02:09:51 2021-Apr-13 02:09
2069-Sep-12 21:45 00:01 Jupiter 1.91373106234246 1.91373069812294 1.91373142656263 2.96865543002572 2.81561888178176 2477002.406042236 1.40189396082038 68.7236591874902 5.23339955126543 -74.0452426550137 7984183.01728092 T 35 CATAB v2.0f-lin.ifort 2021-Apr-13 02:09:51 2021-Apr-13 02:09
2118-Jun-14 23:56 00:02 Jupiter 1.8541922244756 1.85419204062114 1.85419240833154 3.79741677754376 3.67515231203196 2494808.497324727 2.46141316419234 176.373897747294 6.88161115344756 -89.9052892355787 11068275.3786216 T 35 CATAB v2.0f-lin.ifort 2021-Apr-13 02:09:51 2021-Apr-13 02:09
2176-Sep-30 03:37 00:04 Jupiter 1.88942487340058 1.88942405723034 1.88942568958005 3.15143149951519 3.00581562067501 2516100.650370283 4.08732010903074 223.060185319342 6.32728759096172 -76.5063357798507 8921932.56084874 T 35 CATAB v2.0f-lin.ifort 2021-Apr-13 02:09:51 2021-Apr-13 02:09

Alternate Designations
 1995 VT = 1998 KX21 
Ephemeris | Orbit Diagram | Orbital Elements | Mission Design | Physical Parameters | Discovery Circumstances | Close-Approach Data ]
ABOUT SSD CREDITS/AWARDS PRIVACY/COPYRIGHT GLOSSARY LINKS
FirstGov 2021-May-14 22:00 UT
(server date/time)  
NASA Home Page
Site Manager:   Ryan S. Park
Webmaster  Alan B. Chamberlin